[[{"header":{"parameterUnit":"m.s-1","parameterCategory":1,"la1":30.2991,"la2":30.254,"lo1":-89.0895,"lo2":-89.0444,"dy":0.0017,"dx":0.0017,"nx":28,"ny":28,"refTime":"2023-05-01T21:00:00:Z","depth":0,"parameterNumber":2,"parameterNumberName":"U-component_of_WINDS"},"data":[0,0,0,0,0,0,0,0,0,0,0,0,0,0,0,0,0,0,0,0,0,0,0,0,0,0,0,0,0,0,0,0,0,0,0,0,0,0,0,0,0,0,0,0,0,0,0,0,0,0,0,0,0,0,0,0,0,0,0.4802,0.4803,0,0.4884,0.4885,0.4886,0.488,0.4879,0.4878,0.4877,0.4965,0.4969,0.4972,0,0,0,0,0,0,0,0,0,0,0,0,0,0.4644,0.4647,0.4802,0.4803,0.4804,0.4884,0.4885,0.4886,0.4881,0.4879,0.4878,0.4876,0.4964,0.4968,0.4973,0,0,0,0,0,0,0,0,0,0,0,0,0,0.4718,0.4648,0.4802,0.481,0.4812,0.4884,0.4885,0.4887,0.4881,0.4879,0.4877,0.4876,0.4963,0.4968,0.4973,0.5043,0,0,0.4989,0.4992,0,0,0,0,0,0,0,0,0.4714,0.4724,0.4808,0.481,0.4812,0.487,0.4862,0.4939,0.4881,0.4855,0.4877,0.4875,0.4935,0.4943,0.4963,0.5047,0.5051,0.499,0.4993,0.4995,0.4997,0,0,0,0,0,0,0,0.4709,0.472,0.4834,0.4809,0.4812,0.4812,0.482,0.4877,0.4905,0.4857,0.4857,0.4866,0.4936,0.4957,0.4965,0.5052,0.499,0.4994,0.4998,0.5,0.52,0.5203,0,0,0,0,0,0,0.4701,0.4716,0.4832,0.4837,0.4757,0.4816,0.4826,0.4853,0.4904,0.491,0.4868,0.4866,0.4949,0.4958,0.4968,0.5055,0.4995,0.5,0.5003,0.5198,0.5201,0.5203,0,0,0,0,0,0,0.4698,0.4711,0.4829,0.4777,0.4791,0.4821,0.4852,0.4856,0.4877,0.4912,0.4918,0.4884,0.4948,0.496,0.5025,0.5058,0.5003,0.5007,0.5196,0.5199,0.5202,0.5228,0,0,0,0,0,0,0.4693,0.471,0.4736,0.4777,0.4794,0.4883,0.4854,0.4859,0.4886,0.4884,0.4929,0.4935,0.4948,0.5017,0.503,0.5064,0.5011,0.5193,0.5197,0.5201,0.5224,0.5232,0.5238,0,0,0,0,0,0.4687,0.474,0.4737,0.4751,0.4827,0.4884,0.4894,0.4907,0.4888,0.4916,0.4938,0.4933,0.5051,0.5023,0.5038,0.5074,0.5191,0.5196,0.5201,0.5221,0.523,0.5238,0,0,0,0,0,0,0.4703,0.4746,0.4743,0.481,0.4844,0.4883,0.4918,0.4916,0.4957,0.4953,0.4968,0.4979,0.5044,0.5065,0.5033,0.5146,0.5119,0.5127,0.513,0.5138,0.5145,0.514,0.5016,0,0,0,0,0,0.4714,0.4756,0.4791,0.4848,0.4864,0.4888,0.4914,0.4921,0.4957,0.4971,0.4998,0.5035,0.508,0.511,0.5154,0.5227,0.5238,0.5259,0.5266,0.5271,0.5279,0.5322,0.5333,0.5219,0.5219,0.5219,0,0,0.4738,0.4766,0.4792,0.4851,0.4878,0.4923,0.49,0.4948,0.4983,0.4979,0.5042,0.5063,0.5105,0.5174,0.5206,0.5194,0.5312,0.5277,0.5282,0.5286,0.5328,0.5339,0.5348,0.5223,0.5222,0.5222,0,0,0.4805,0.4829,0.488,0.4907,0.4948,0.4963,0.4975,0.5015,0.5029,0.5092,0.5091,0.5132,0.5209,0.524,0.5266,0.5345,0.5343,0.5359,0.5396,0.5437,0.5446,0.5454,0.5485,0.5496,0.5366,0.5366,0.5366,0,0.483,0.4896,0.4906,0.4955,0.4983,0.498,0.5033,0.5059,0.5112,0.5132,0.5117,0.5215,0.5243,0.5321,0.534,0.536,0.5376,0.5355,0.5444,0.5452,0.546,0.549,0.5501,0.5367,0.5367,0.5367,0.5367,0,0.4927,0.4973,0.5009,0.506,0.5091,0.5141,0.5161,0.5191,0.5195,0.5213,0.5278,0.5311,0.5363,0.5381,0.5385,0.546,0.5452,0.544,0.5414,0.5472,0.5501,0.5512,0.537,0.5369,0.5369,0.5368,0,0,0.5007,0.5063,0.5076,0.51,0.5145,0.5182,0.5233,0.5282,0.5309,0.5345,0.5391,0.5456,0.5446,0.5475,0.5483,0.5519,0.5584,0.5504,0.5505,0.552,0.5672,0.5682,0.5695,0.5582,0.5584,0.5585,0.5669,0,0.5081,0.5171,0.5181,0.5262,0.5306,0.5304,0.5349,0.5383,0.54,0.5442,0.5462,0.551,0.5491,0.5509,0.5544,0.5568,0.5615,0.5562,0.5627,0.5629,0.5619,0.571,0.5721,0.5799,0.568,0.5682,0.5683,0,0.5179,0.5218,0.5303,0.5343,0.5362,0.5402,0.5449,0.5488,0.5526,0.5537,0.557,0.5573,0.5629,0.5598,0.5676,0.564,0.5667,0.5683,0.5686,0.5695,0.5662,0.5724,0.5823,0.5836,0.57,0.5699,0.5698,0,0.5234,0.5307,0.5368,0.5388,0.5435,0.5464,0.5485,0.5521,0.5551,0.5592,0.5612,0.5659,0.5686,0.5723,0.5741,0.5716,0.5819,0.5789,0.5832,0.5832,0.5856,0.5855,0.5964,0.5868,0.5868,0.5867,0.5867,0,0.5317,0.5369,0.5393,0.5431,0.549,0.5502,0.5562,0.5582,0.5615,0.5658,0.5659,0.57,0.5718,0.5763,0.5777,0.5841,0.5852,0.5865,0.5868,0.5866,0.5865,0.5886,0.5883,0.5871,0.587,0.5869,0.5869,0,0.5388,0.5406,0.5472,0.5511,0.5522,0.5565,0.56,0.5637,0.5654,0.5709,0.5723,0.5751,0.5803,0.5823,0.5887,0.5897,0.5972,0.597,0.5959,0.5961,0.6003,0.6,0.6132,0.6152,0.604,0.6041,0.6042,0,0.5441,0.5482,0.5525,0.5554,0.5576,0.5621,0.5651,0.5665,0.5696,0.5744,0.5777,0.5828,0.5871,0.5955,0.5983,0.6032,0.6033,0.6076,0.6041,0.6039,0.6038,0.6037,0.6042,0.6084,0.6085,0.6086,0.6086,0,0.5535,0.5542,0.5584,0.563,0.5666,0.5703,0.5739,0.5762,0.5782,0.5817,0.587,0.5903,0.5969,0.6022,0.6073,0.6097,0.6097,0.6097,0.611,0.611,0.6104,0.6111,0.598,0.6095,0.6094,0.6093,0.6093,0.6092,0.5602,0.5639,0.5675,0.5723,0.5751,0.5785,0.5823,0.5844,0.5888,0.5942,0.5947,0.6005,0.6045,0.6113,0.6139,0.6186,0.6175,0.6193,0.6199,0.6204,0.6209,0.6093,0.6195,0.6195,0.6195,0.6195,0.6195,0,0.5699,0.5722,0.5765,0.5815,0.5853,0.5847,0.5886,0.592,0.597,0.6006,0.6047,0.611,0.6161,0.6192,0.6244,0.6276,0.6277,0.629,0.6289,0.6295,0.6214,0.6199,0.6288,0.6288,0.6288,0.6288,0.6288,0.6288,0.5753,0.5816,0.5827,0.5905,0.5928,0.5984,0.6008,0.604,0.6069,0.6138,0.618,0.6199,0.6234,0.6288,0.6336,0.6344,0.6365,0.6379,0.6386,0.631,0.6301,0.6292,0.6278,0.6382,0.6382,0.6464,0.6465,0.6466]},{"header":{"parameterUnit":"m.s-1","parameterCategory":1,"la1":30.2991,"la2":30.254,"lo1":-89.0895,"lo2":-89.0444,"dy":0.0017,"dx":0.0017,"nx":28,"ny":28,"refTime":"2023-05-01T21:00:00:Z","depth":0,"parameterNumber":3,"parameterNumberName":"V-component_of_WINDS"},"data":[0,0,0,0,0,0,0,0,0,0,0,0,0,0,0,0,0,0,0,0,0,0,0,0,0,0,0,0,0,0,0,0,0,0,0,0,0,0,0,0,0,0,0,0,0,0,0,0,0,0,0,0,0,0,0,0,0,0,-1.5282,-1.5282,0,-1.531,-1.531,-1.531,-1.5311,-1.5311,-1.5311,-1.531,-1.5337,-1.5338,-1.5339,0,0,0,0,0,0,0,0,0,0,0,0,0,-1.5229,-1.523,-1.5282,-1.5282,-1.5283,-1.531,-1.531,-1.531,-1.5311,-1.5311,-1.5311,-1.531,-1.5337,-1.5338,-1.5339,0,0,0,0,0,0,0,0,0,0,0,0,0,-1.5254,-1.523,-1.5282,-1.5287,-1.5287,-1.531,-1.531,-1.531,-1.5312,-1.5311,-1.5311,-1.531,-1.5336,-1.5338,-1.5339,-1.5358,0,0,-1.5344,-1.5344,0,0,0,0,0,0,0,0,-1.5252,-1.5256,-1.5285,-1.5286,-1.5287,-1.5307,-1.5301,-1.5326,-1.5312,-1.5302,-1.531,-1.531,-1.5327,-1.5329,-1.5336,-1.5359,-1.5361,-1.5344,-1.5345,-1.5346,-1.5346,0,0,0,0,0,0,0,-1.5251,-1.5255,-1.5293,-1.5286,-1.5287,-1.5287,-1.529,-1.5306,-1.5317,-1.5303,-1.5303,-1.5307,-1.5327,-1.5334,-1.5336,-1.5361,-1.5344,-1.5345,-1.5346,-1.5347,-1.5404,-1.5404,0,0,0,0,0,0,-1.5248,-1.5253,-1.5292,-1.5294,-1.5268,-1.5288,-1.5292,-1.5301,-1.5317,-1.5319,-1.5307,-1.5307,-1.5332,-1.5334,-1.5337,-1.5362,-1.5345,-1.5347,-1.5348,-1.5403,-1.5404,-1.5404,0,0,0,0,0,0,-1.5247,-1.5252,-1.5291,-1.5274,-1.5279,-1.529,-1.53,-1.5302,-1.5308,-1.532,-1.5322,-1.5312,-1.5331,-1.5335,-1.5354,-1.5363,-1.5348,-1.5349,-1.5402,-1.5403,-1.5404,-1.5411,0,0,0,0,0,0,-1.5246,-1.5251,-1.5259,-1.5274,-1.5279,-1.5307,-1.5301,-1.5303,-1.5311,-1.5311,-1.5325,-1.5327,-1.5331,-1.5351,-1.5355,-1.5365,-1.535,-1.5401,-1.5403,-1.5404,-1.541,-1.5412,-1.5413,0,0,0,0,0,-1.5244,-1.5259,-1.5259,-1.5264,-1.5289,-1.5308,-1.5311,-1.5316,-1.5312,-1.532,-1.5327,-1.5326,-1.5361,-1.5353,-1.5357,-1.5367,-1.5401,-1.5402,-1.5404,-1.5409,-1.5411,-1.5413,0,0,0,0,0,0,-1.5244,-1.5261,-1.5261,-1.5282,-1.5293,-1.5308,-1.5318,-1.5319,-1.5331,-1.533,-1.5336,-1.5339,-1.5358,-1.5364,-1.5355,-1.5388,-1.538,-1.5383,-1.5383,-1.5385,-1.5387,-1.5385,-1.5351,0,0,0,0,0,-1.5246,-1.526,-1.5274,-1.5291,-1.5297,-1.5306,-1.5314,-1.5318,-1.533,-1.5334,-1.5343,-1.5354,-1.5368,-1.5377,-1.539,-1.541,-1.5414,-1.5419,-1.5421,-1.5423,-1.5425,-1.5438,-1.5441,-1.5409,-1.5409,-1.5409,0,0,-1.5251,-1.5262,-1.5271,-1.5291,-1.53,-1.5315,-1.531,-1.5325,-1.5336,-1.5336,-1.5355,-1.5362,-1.5375,-1.5395,-1.5404,-1.5401,-1.5434,-1.5424,-1.5425,-1.5427,-1.5439,-1.5442,-1.5445,-1.541,-1.541,-1.5409,0,0,-1.5268,-1.5277,-1.5293,-1.5303,-1.5318,-1.5324,-1.5328,-1.5343,-1.5348,-1.5366,-1.5368,-1.538,-1.5403,-1.5413,-1.5421,-1.5443,-1.5443,-1.5446,-1.5456,-1.5469,-1.5471,-1.5474,-1.5483,-1.5486,-1.5448,-1.5448,-1.5448,0,-1.5272,-1.5295,-1.5301,-1.5317,-1.5326,-1.5328,-1.5344,-1.5353,-1.5371,-1.5377,-1.5374,-1.5404,-1.5412,-1.5435,-1.5441,-1.5447,-1.5452,-1.5445,-1.547,-1.5473,-1.5475,-1.5484,-1.5487,-1.5449,-1.5449,-1.5449,-1.5449,0,-1.53,-1.5315,-1.5326,-1.5345,-1.5355,-1.5371,-1.538,-1.5389,-1.5392,-1.5399,-1.5419,-1.5429,-1.5445,-1.5451,-1.5453,-1.5475,-1.5472,-1.5469,-1.5462,-1.5478,-1.5487,-1.549,-1.545,-1.5449,-1.5449,-1.5449,0,0,-1.5317,-1.534,-1.5344,-1.5353,-1.537,-1.5382,-1.5398,-1.5415,-1.5423,-1.5436,-1.545,-1.547,-1.5468,-1.5477,-1.548,-1.5491,-1.5509,-1.5487,-1.5487,-1.5492,-1.5535,-1.5538,-1.5542,-1.5509,-1.551,-1.551,-1.5534,0,-1.5337,-1.5366,-1.5373,-1.5398,-1.5413,-1.5416,-1.543,-1.5442,-1.5449,-1.5463,-1.547,-1.5485,-1.548,-1.5486,-1.5496,-1.5505,-1.5518,-1.5503,-1.5523,-1.5523,-1.5521,-1.5546,-1.5549,-1.5571,-1.5538,-1.5538,-1.5539,0,-1.5363,-1.5378,-1.5405,-1.5422,-1.5428,-1.5441,-1.5458,-1.547,-1.5484,-1.5488,-1.5499,-1.5502,-1.5519,-1.5511,-1.5535,-1.5524,-1.5533,-1.5538,-1.5539,-1.5542,-1.5533,-1.5551,-1.5578,-1.5582,-1.5543,-1.5543,-1.5543,0,-1.5375,-1.5401,-1.5421,-1.5429,-1.5448,-1.5457,-1.5466,-1.5479,-1.5489,-1.5503,-1.551,-1.5525,-1.5534,-1.5546,-1.5553,-1.5546,-1.5577,-1.5569,-1.5581,-1.5581,-1.5588,-1.5588,-1.5619,-1.5592,-1.5592,-1.5592,-1.5591,0,-1.5397,-1.5414,-1.5427,-1.544,-1.5459,-1.5466,-1.5485,-1.5493,-1.5505,-1.552,-1.5522,-1.5535,-1.5543,-1.5557,-1.5563,-1.5583,-1.5586,-1.559,-1.5592,-1.5591,-1.559,-1.5597,-1.5596,-1.5592,-1.5592,-1.5592,-1.5592,0,-1.5413,-1.5423,-1.5445,-1.5462,-1.5467,-1.5481,-1.5495,-1.5507,-1.5515,-1.5533,-1.5537,-1.5549,-1.5566,-1.5574,-1.5594,-1.5598,-1.5621,-1.5621,-1.5617,-1.5618,-1.563,-1.5629,-1.5667,-1.5673,-1.5641,-1.5641,-1.5642,0,-1.5427,-1.544,-1.5459,-1.547,-1.5479,-1.5495,-1.5506,-1.5513,-1.5524,-1.5542,-1.5552,-1.557,-1.5584,-1.5612,-1.5622,-1.5638,-1.5639,-1.5651,-1.5641,-1.564,-1.564,-1.564,-1.5642,-1.5653,-1.5653,-1.5653,-1.5654,0,-1.5451,-1.5455,-1.5471,-1.5489,-1.5502,-1.5516,-1.553,-1.5538,-1.5548,-1.5561,-1.5579,-1.559,-1.5612,-1.563,-1.5647,-1.5655,-1.5657,-1.5657,-1.5661,-1.566,-1.5658,-1.5661,-1.5623,-1.5656,-1.5656,-1.5655,-1.5655,-1.5655,-1.5467,-1.548,-1.5496,-1.5514,-1.5525,-1.5539,-1.5552,-1.5561,-1.5577,-1.5596,-1.56,-1.562,-1.5634,-1.5657,-1.5666,-1.5682,-1.5679,-1.5684,-1.5686,-1.5687,-1.5689,-1.5655,-1.5685,-1.5684,-1.5684,-1.5684,-1.5684,0,-1.5493,-1.5503,-1.552,-1.554,-1.5554,-1.5555,-1.557,-1.5582,-1.56,-1.5614,-1.5628,-1.565,-1.5667,-1.5679,-1.5697,-1.5707,-1.5708,-1.5711,-1.5711,-1.5714,-1.569,-1.5685,-1.571,-1.571,-1.571,-1.571,-1.571,-1.571,-1.5508,-1.553,-1.5536,-1.5564,-1.5575,-1.5595,-1.5604,-1.5617,-1.5628,-1.5652,-1.5667,-1.5675,-1.5688,-1.5707,-1.5723,-1.5726,-1.5733,-1.5737,-1.574,-1.5718,-1.5715,-1.5712,-1.5708,-1.5738,-1.5738,-1.5763,-1.5763,-1.5763]}]]